Regional Weather Roundup
Issued by NWS

Home | Current Version | Previous Version | Text Only | Print | Product List | Glossary On
Versions: 1 2 3 4 5 6 7 8 9 10 11 12 13 14 15 16 17 18 19 20 21 22 23 24 25 26 27 28 29 30 31 32 33 34 35 36 37 38 39 40 41 42 43 44 45 46 47 48 49 50
000
ASUS44 KLIX 220912
RWRLA
LOUISIANA WEATHER ROUNDUP
NATIONAL WEATHER SERVICE NEW ORLEANS LA
400 AM CDT FRI MAY 22 2015

NOTE: "FAIR" INDICATES FEW OR NO CLOUDS BELOW 12,000 FEET WITH NO
      SIGNIFICANT WEATHER AND/OR OBSTRUCTIONS TO VISIBILITY.
      SKY/WX - SKY CONDITION AND SIGNIFICANT WEATHER.
      TMP - AIR TEMPERATURE.    DP   - DEWPOINT TEMPERATURE.
      RH  - RELATIVE HUMIDITY.  PRES - PRESSURE.
      HX  - HEAT INDEX.         WCI  - WIND CHILL INDEX.

*  THESE STATIONS ARE NOT NWS OR FAA STATIONS AND ARE NOT UNDER
   NWS QUALITY CONTROL.

LAZ040-048-061>063-065-066-069-221000-
SOUTHEAST LOUISIANA

CITY           SKY/WX    TMP DP  RH WIND       PRES   REMARKS
N.O. AUDUBON     N/A     72  71  96 MISG        N/A
N.O. INTL ARPT CLOUDY    71  67  87 NE10      30.08R
N.O. LAKEFRONT CLOUDY    74  67  78 NE17      30.08R
SLIDELL        CLOUDY    67  65  93 N8        30.08S
BATON ROUGE    CLOUDY    64  61  90 CALM      30.11R
BOOTHVILLE     MOCLDY    77  73  87 CALM      30.05R
BELLE CHASSE   CLOUDY    71  67  87 NE8       30.07R
BOGALUSA*        N/A     65  60  83 N9        30.12S
GALLIANO*      PTSUNNY   74  71  89 N6        30.06S
NEW ROADS*     CLOUDY    62  59  92 NE8       30.14R
GONZALES*      CLOUDY    67  67 100 NE3       30.10R
HAMMOND*       CLOUDY    66  61  82 N6        30.12R
HOUMA*         CLOUDY    70  69  96 N10       30.06S
PORT FOURCHON* CLOUDY    77  73  88 N12       30.05S

$$

LAZ041-044-053-054-221000-
SOUTHWEST LOUISIANA

CITY           SKY/WX    TMP DP  RH WIND       PRES   REMARKS
LAKE CHARLES   CLOUDY    63  60  90 NE14      30.11S
LAFAYETTE      CLOUDY    63  61  93 N13       30.11R
PATTERSON      NOT AVBL
SALT POINT       N/A     71  69  93 N5        30.05S
NEW IBERIA     CLOUDY    67  64  90 N10       30.11R
CHENAULT AIRPK CLOUDY    62  60  92 NE9       30.12R

$$

LAZ027-028-221000-
CENTRAL LOUISIANA

CITY           SKY/WX    TMP DP  RH WIND       PRES   REMARKS
FORT POLK      CLOUDY    57  55  92 NE6       30.14R
ALEXANDRIA INT CLOUDY    56  53  90 NE5       30.14R
ALEXANDRIA     CLOUDY    58  52  80 NE5       30.16R

$$

LAZ001-002-221000-
NORTHWEST LOUISIANA

CITY           SKY/WX    TMP DP  RH WIND       PRES   REMARKS
SHREVEPORT     MOCLDY    56  52  86 E5        30.18R
BARKSDALE AFB  CLEAR     54  52  92 NE2       30.18R
DTN SHREVEPORT CLEAR     55  51  86 E3        30.19R

$$

LAZ014-016-221000-
NORTHEAST LOUISIANA

CITY           SKY/WX    TMP DP  RH WIND       PRES   REMARKS
MONROE         CLEAR     52  50  93 NE7       30.19R
TALLULAH       PTCLDY    56  50  80 NE9       30.18R

$$



USA.gov is the U.S. government's official web portal to all federal, state and local government web resources and services.